Regional Weather Roundup
Issued by NWS Jackson, KY

Home | Current Version | Previous Version | Graphics & Text | Print | Product List | Glossary On
Versions: 1 2 3 4 5 6 7 8 9 10 11 12 13 14 15 16 17 18 19 20 21 22 23 24 25 26 27 28 29 30 31 32 33 34 35 36 37 38 39 40 41 42 43 44 45 46 47 48 49 50
000
ASUS43 KJKL 180319
RWRJKL

EAST KENTUCKY HOURLY WEATHER ROUNDUP
NATIONAL WEATHER SERVICE JACKSON KY
1100 PM EDT THU APR 17 2014

NOTE: "FAIR" INDICATES FEW OR NO CLOUDS BELOW 12,000 FEET WITH
NO SIGNIFICANT WEATHER AND/OR OBSTRUCTIONS TO VISIBILITY.

* THESE REPORTS ARE NOT UNDER NWS QUALITY CONTROL AND MAY NOT
  REPORT WEATHER SUCH AS PRECIPITATION AND FOG.

KYZ079-080-083-085-087-088-110-112-115-119-120-180400
...EASTERN KENTUCKY...

CITY           SKY/WX    TMP DP  RH WIND       PRES   REMARKS
JACKSON        CLEAR     60  19  20 S3        30.29S
LONDON         CLEAR     53  32  44 CALM      30.29F
SOMERSET*      PTCLDY    55  28  35 CALM      30.30S
MONTICELLO*    PTCLDY    43  38  82 CALM      30.32R
WILLIAMSBURG*  CLEAR     55  28  35 CALM      30.30F
MIDDLESBORO*   PTCLDY    47  36  63 CALM      30.32S
HARLAN APT*    CLEAR     52  25  35 NE5       30.32S
BLACK MTN*       N/A     46  21  36 W3          N/A
PIKEVILLE APT* CLEAR     59  27  29 SE7       30.31R
BIG SANDY*     PTCLDY    57  28  32 SE6       30.31R
ASHLAND*       CLEAR     48  34  57 CALM      30.27F
MOREHEAD APT*  CLEAR     57  28  33 NW2       30.30F
$$

KYZ035-036-041-042-044-050-067-078-099-180400
...CENTRAL KENTUCKY...

CITY           SKY/WX    TMP DP  RH WIND       PRES   REMARKS
MT STERLING*   PTCLDY    45  39  81 CALM      30.30S
FLEMING/MASON* CLEAR     54  34  47 CALM      30.29S
DANVILLE*      PTCLDY    48  34  57 CALM      30.30R
LEXINGTON      CLEAR     54  34  46 E6        30.29R
FRANKFORT      CLEAR     47  38  71 CALM      30.27S
$$

KYZ091>093-OHZ055-061-077-WVZ005-015-034-035-042-180400
...SOUTHERN OHIO/WEST VIRGINIA...

CITY           SKY/WX    TMP DP  RH WIND       PRES   REMARKS
COVINGTON      PTCLDY    53  34  48 CALM      30.28F
COLUMBUS       PTCLDY    53  34  48 E3        30.30F
DAYTON         PTCLDY    56  32  40 S6        30.29S
WILMINGTON     CLEAR     49  34  56 CALM      30.29S
HUNTINGTON     CLEAR     54  25  32 E7        30.29S
CHARLESTON       N/A     58  25  28 VRB6      30.33F
PINEVILLE*     CLEAR     48  34  59 MISG      30.43S
BECKLEY        CLEAR     47  22  37 SE13G18   30.41R
BLUEFIELD      CLEAR     49  18  29 SE13G18   30.42R
$$

VAZ002-007-008-TNZ017-027-036-066-071-180400
...SOUTHWEST VIRGINIA/EAST TENNESSEE...

CITY           SKY/WX    TMP DP  RH WIND       PRES   REMARKS
WISE*          CLEAR     52  21  30 S6        30.36F
ABINGDON*      CLEAR     50  24  36 E10       30.39S
BRISTOL        PTCLDY    54  20  26 SE7       30.37S
KNOXVILLE      CLOUDY    56  37  49 CALM      30.31R
OAK RIDGE      MOCLDY    52  39  61 CALM      30.32S
CROSSVILLE     MOCLDY    52  35  52 CALM      30.32S
NASHVILLE      CLOUDY    57  40  52 S3        30.27S
$$

...KEY TO REMARKS...
VSB - VISIBILITY IN MILES
WCI - WIND CHILL INDEX
HX  - HEAT INDEX

$$



USA.gov is the U.S. government's official web portal to all federal, state and local government web resources and services.